Thomson, GA

1:48 AM EDT on April 27, 2018 (GMT -0400)
Thomson-McDuffie County

Weather History for KHQU - January, 2014

Change the Weather History Date:

Thursday, January 2, 2014

  Actual Average (KDNL) Record (KDNL)
Temperature  
Mean Temperature 42 °F -  
Max Temperature 52 °F 54 °F 73 °F (2000)
Min Temperature 31 °F 37 °F 18 °F (2018)
Degree Days  
Heating Degree Days 23    
Moisture  
Dew Point 44 °F    
Average Humidity 96    
Maximum Humidity 100    
Minimum Humidity 76    
Precipitation  
Precipitation 0.00 in - - ()
Sea Level Pressure  
Sea Level Pressure 29.96 in    
Wind  
Wind Speed 3 mph (West)    
Max Wind Speed 23 mph    
Max Gust Speed 37 mph    
Visibility 5 miles    
Events      
Averages and records for this station are not official NWS values.
T = Trace of Precipitation, MM = Missing Value Source: NWS Daily Summary

Daily Weather History Graph

Daily Weather History Graph

Search for Another Location

Airport or City:

Astronomy

Jan. 02, 2014 Rise Set
Actual Time 7:34 AM EST 5:33 PM EST
Civil Twilight 7:07 AM EST 6:01 PM EST
Nautical Twilight 6:36 AM EST 6:32 PM EST
Astronomical Twilight 6:05 AM EST 7:02 PM EST
Moon 8:20 AM EST (1/2) 7:23 PM EST (1/2)
Length of Visible Light 10h 54m
Length of Day
9h 59m
New Moon, 2% of the Moon is Illuminated
Jan 2
New Moon
Jan 7
First Quarter
Jan 15
Full
Jan 24
Last Quarter
Jan 30
New

Hourly Weather History & Observations

Time (EST) Temp. Windchill Dew Point Humidity Pressure Visibility Wind Dir Wind Speed Gust Speed Precip Events Conditions
12:15 AM 43.7 °F - 43.7 °F 100% 30.19 in 7.0 mi Calm Calm - N/A   Overcast
12:35 AM 43.7 °F - 43.7 °F 100% 30.19 in 7.0 mi Calm Calm - N/A   Overcast
12:55 AM 43.7 °F - 43.7 °F 100% 30.19 in 7.0 mi Calm Calm - N/A   Overcast
1:15 AM 43.7 °F - 43.7 °F 100% 30.18 in 5.0 mi Calm Calm - N/A   Overcast
1:35 AM 43.7 °F - 43.7 °F 100% 30.17 in 7.0 mi Calm Calm - N/A   Overcast
1:55 AM 43.7 °F - 43.7 °F 100% 30.17 in 4.0 mi Calm Calm - N/A   Overcast
2:15 AM 43.7 °F - 43.7 °F 100% 30.16 in 4.0 mi Calm Calm - N/A   Overcast
2:35 AM 43.7 °F - 43.7 °F 100% 30.15 in 3.0 mi Calm Calm - N/A   Overcast
2:55 AM 43.7 °F - 43.7 °F 100% 30.12 in 3.0 mi Calm Calm - N/A   Overcast
3:15 AM 43.7 °F - 43.7 °F 100% 30.13 in 3.0 mi Calm Calm - N/A   Overcast
3:35 AM 43.9 °F - 43.9 °F 100% 30.11 in 3.0 mi Calm Calm - N/A   Overcast
3:55 AM 43.9 °F - 43.9 °F 100% 30.11 in 3.0 mi Calm Calm - N/A   Overcast
4:15 AM 43.9 °F - 43.9 °F 100% 30.11 in 3.0 mi Calm Calm - N/A   Overcast
4:35 AM 44.1 °F - 44.1 °F 100% 30.08 in 3.0 mi Calm Calm - N/A   Overcast
4:55 AM 44.1 °F - 44.1 °F 100% 30.07 in 4.0 mi Calm Calm - N/A   Overcast
5:15 AM 43.9 °F - 43.9 °F 100% 30.06 in 5.0 mi Calm Calm - N/A   Overcast
5:35 AM 44.2 °F - 44.2 °F 100% 30.06 in 3.0 mi Calm Calm - N/A   Overcast
5:55 AM 43.9 °F - 43.9 °F 100% 30.05 in 3.0 mi Calm Calm - N/A   Overcast
6:15 AM 44.1 °F - 44.1 °F 100% 30.05 in 2.0 mi Calm Calm - N/A   Overcast
6:35 AM 43.9 °F 42.3 °F 43.9 °F 100% 30.04 in 2.5 mi North 3.5 mph - N/A   Overcast
6:55 AM 43.9 °F - 43.9 °F 100% 30.03 in 3.0 mi Calm Calm - N/A   Overcast
7:15 AM 44.1 °F - 44.1 °F 100% 30.03 in 5.0 mi Calm Calm - N/A   Overcast
7:35 AM 44.4 °F - 44.4 °F 100% 30.01 in 5.0 mi Calm Calm - N/A   Overcast
7:55 AM 44.4 °F - 44.4 °F 100% 30.01 in 4.0 mi Calm Calm - N/A   Overcast
8:15 AM 44.6 °F - 44.6 °F 100% 30.01 in 4.0 mi Calm Calm - N/A   Overcast
8:35 AM 44.6 °F - 44.6 °F 100% 30.01 in 2.5 mi Calm Calm - N/A   Overcast
8:55 AM 45.0 °F - 45.0 °F 100% 29.99 in 4.0 mi Calm Calm - N/A   Overcast
9:15 AM 45.3 °F - 45.3 °F 100% 29.99 in 4.0 mi Calm Calm - N/A   Overcast
9:35 AM 45.7 °F - 45.7 °F 100% 29.98 in 5.0 mi Calm Calm - N/A   Overcast
9:55 AM 46.4 °F - 46.4 °F 100% 29.98 in 4.0 mi Calm Calm - N/A   Overcast
10:15 AM 46.8 °F - 46.8 °F 100% 29.97 in 4.0 mi Calm Calm - N/A   Overcast
10:35 AM 47.3 °F - 47.3 °F 100% 29.94 in 4.0 mi Calm Calm - N/A   Overcast
10:55 AM 48.2 °F - 48.2 °F 100% 29.94 in 4.0 mi Calm Calm - N/A   Overcast
11:15 AM 49.1 °F - 49.1 °F 100% 29.92 in 4.0 mi South 3.5 mph - N/A   Overcast
11:35 AM 49.5 °F - 49.5 °F 100% 29.91 in 4.0 mi SSW 3.5 mph - N/A   Overcast
11:55 AM 49.8 °F - 49.8 °F 100% 29.90 in 5.0 mi Calm Calm - N/A   Overcast
12:15 PM 49.8 °F - 49.8 °F 100% 29.88 in 3.0 mi Calm Calm - N/A   Overcast
12:35 PM 50.0 °F - 50.0 °F 100% 29.86 in 2.5 mi South 3.5 mph - N/A   Overcast
12:55 PM 50.2 °F - 50.2 °F 100% 29.84 in 1.5 mi SSW 3.5 mph - N/A   Overcast
1:15 PM 50.7 °F - 50.7 °F 100% 29.83 in 1.2 mi Calm Calm - N/A   Overcast
1:35 PM 50.9 °F - 50.9 °F 100% 29.82 in 2.0 mi South 4.6 mph - N/A   Overcast
1:55 PM 51.1 °F - 51.1 °F 100% 29.81 in 2.0 mi SSW 3.5 mph - N/A   Overcast
2:15 PM 51.1 °F - 51.1 °F 100% 29.80 in 1.5 mi SW 4.6 mph - N/A   Overcast
2:35 PM 51.3 °F - 51.3 °F 100% 29.80 in 1.8 mi Calm Calm - N/A   Overcast
2:55 PM 51.8 °F - 51.8 °F 100% 29.79 in 3.0 mi Calm Calm - N/A   Overcast
3:15 PM 52.0 °F - 52.0 °F 100% 29.78 in 5.0 mi SW 3.5 mph - N/A   Overcast
3:35 PM 52.0 °F - 52.0 °F 100% 29.78 in 2.5 mi SW 3.5 mph - N/A   Overcast
3:55 PM 52.0 °F - 52.0 °F 100% 29.79 in 2.0 mi Calm Calm - N/A   Overcast
4:15 PM 52.2 °F - 52.2 °F 100% 29.79 in 4.0 mi WSW 3.5 mph - N/A   Overcast
4:35 PM 52.2 °F - 52.2 °F 100% 29.79 in 5.0 mi WSW 4.6 mph - N/A   Overcast
4:55 PM 52.3 °F - 52.3 °F 100% 29.78 in 4.0 mi West 5.8 mph - N/A   Overcast
5:15 PM 52.3 °F - 52.3 °F 100% 29.78 in 5.0 mi West 9.2 mph - N/A   Overcast
5:35 PM 52.0 °F - 52.0 °F 100% 29.79 in 4.0 mi West 13.8 mph 20.7 mph N/A   Overcast
5:55 PM 51.4 °F - 51.4 °F 100% 29.79 in 10.0 mi WNW 10.4 mph 18.4 mph N/A   Overcast
6:15 PM 50.9 °F - 50.4 °F 98% 29.80 in 10.0 mi West 13.8 mph 20.7 mph N/A   Overcast
6:35 PM 50.5 °F - 49.5 °F 96% 29.81 in 10.0 mi WNW 13.8 mph 25.3 mph N/A   Overcast
6:55 PM 49.8 °F - 46.9 °F 90% 29.83 in 10.0 mi WNW 20.7 mph 35.7 mph N/A   Overcast
7:15 PM 47.3 °F - 43.5 °F 87% 29.85 in 10.0 mi West 19.6 mph 26.5 mph N/A   Scattered Clouds
7:35 PM 45.9 °F 40.0 °F 42.3 °F 87% 29.86 in 10.0 mi West 12.7 mph 26.5 mph N/A   Clear
7:55 PM 44.6 °F 35.9 °F 39.4 °F 82% 29.88 in 10.0 mi West 23.0 mph 32.2 mph N/A   Clear
8:15 PM 43.0 °F 36.0 °F 38.3 °F 84% 29.89 in 10.0 mi West 13.8 mph 26.5 mph N/A   Clear
8:35 PM 41.9 °F 32.8 °F 36.3 °F 81% 29.91 in 10.0 mi West 20.7 mph 29.9 mph N/A   Scattered Clouds
8:55 PM 40.3 °F 31.3 °F 34.2 °F 79% 29.92 in 10.0 mi West 18.4 mph 28.8 mph N/A   Clear
9:15 PM 39.2 °F 30.5 °F 32.9 °F 78% 29.92 in 10.0 mi West 16.1 mph 26.5 mph N/A   Clear
9:35 PM 37.9 °F 29.2 °F 32.0 °F 79% 29.93 in 10.0 mi West 15.0 mph 26.5 mph N/A   Clear
9:55 PM 37.2 °F 27.6 °F 31.1 °F 79% 29.95 in 10.0 mi West 17.3 mph 24.2 mph N/A   Clear
10:15 PM 35.8 °F 25.7 °F 28.9 °F 76% 29.95 in 10.0 mi West 17.3 mph 32.2 mph N/A   Clear
10:35 PM 34.3 °F 24.6 °F 28.0 °F 78% 29.96 in 10.0 mi WNW 15.0 mph 27.6 mph N/A   Clear
10:55 PM 33.3 °F 22.1 °F 27.3 °F 79% 29.97 in 10.0 mi WNW 18.4 mph 27.6 mph N/A   Clear
11:15 PM 32.5 °F 20.8 °F 26.2 °F 78% 29.98 in 10.0 mi West 19.6 mph 33.4 mph N/A   Clear
11:35 PM 32.0 °F 20.8 °F 25.5 °F 77% 29.99 in 10.0 mi West 17.3 mph 36.8 mph N/A   Clear
11:55 PM 31.5 °F 19.8 °F 24.8 °F 76% 30.00 in 10.0 mi West 18.4 mph 25.3 mph N/A   Clear